Flag for Mexico Weather past 2 weeks in Playa del Carmen, Quintana Roo, Mexico

Now
79 °F

Passing clouds.


Feels Like: 83 °F
Forecast: 80 / 90 °F
Wind: No wind

Location: Cozumel Civ / Mil

Current Time: Jun 29, 2015 at 10:54:06 PM

Latest Report: Jun 29, 2015 at 8:40 PM


Visibility: 6 mi

Pressure: 30.05 "Hg

Humidity: 94%

Dew point: 77 °F

Location of Playa del CarmenLocation

Historic Weather in Playa del Carmen — Graph

°F

Playa del Carmen temperature yesterday

Maximum temperature yesterday: 86 °F (at 1:40 PM)
Minimum temperature yesterday: 73 °F (at 5:51 AM)
Average temperature yesterday: 79 °F

Past Weeks' High & Low Weather Summary

 TemperatureHumidityPressure
High86 °F (Jun 27, 1:41 PM)100% (Jun 14, 9:50 PM)30.12 "Hg (Jun 14, 9:50 PM)
Low70 °F (Jun 24, 1:50 AM)62% (Jun 28, 3:42 PM)29.88 "Hg (Jun 15, 6:44 AM)
Average78 °F92%30.03 "Hg
* Reported Jun 14 9:50 PM — Jun 29 8:40 PM, Playa del Carmen, Weather by CustomWeather, © 2015

Note: Actual official high and low records may vary slightly from our data, if they occured in-between our weather recording intervals... More about our weather records

Advertising

Playa del Carmen weather history for previous 24 hours

 ConditionsComfort  
Time TempWeatherWind HumidityBarometerVisibility
8:40 PM
Mon, Jun 29
79 °FPassing clouds.No wind94%30.05 "Hg6 mi
5:46 PM82 °FMostly cloudy.8 mph84%30.02 "Hg6 mi
4:45 PM82 °FMostly cloudy.12 mph84%30.02 "Hg6 mi
1:41 PM86 °FBroken clouds.15 mph75%30.07 "Hg6 mi
12:44 PM84 °FBroken clouds.17 mph74%30.06 "Hg6 mi
11:41 AM84 °FPartly sunny.12 mph79%30.07 "Hg8 mi
10:44 AM84 °FPartly sunny.13 mph79%30.07 "Hg8 mi
9:40 AM84 °FPartly sunny.14 mph74%30.09 "Hg8 mi
8:41 AM81 °FPartly sunny.10 mph84%30.05 "Hg8 mi
7:43 AM79 °FScattered clouds.No wind94%30.03 "Hg8 mi
6:45 AM75 °FPassing clouds.No wind100%30.01 "Hg7 mi
5:45 AM73 °FPassing clouds.No wind100%30.02 "Hg7 mi
4:57 AM75 °FPassing clouds.No wind100%30.01 "Hg7 mi
3:45 AM75 °FPassing clouds.No wind100%30.04 "Hg7 mi
1:40 AM75 °FPassing clouds.No wind100%30.05 "Hg7 mi
12:41 AM75 °FPassing clouds.No wind100%30.04 "Hg7 mi
11:44 PM
Sun, Jun 28
75 °FPassing clouds.No wind100%30.07 "Hg7 mi
10:40 PM77 °FPassing clouds.No wind94%30.07 "Hg7 mi
Weather by CustomWeather, © 2015

See weather overviewHow to use our weather pages